METEOR 2-5 DEB

Satellite information

Favourite Embed

Satellite Type and Status

DEBRISIN ORBIT

Key statistics

Satellite METEOR 2-5 DEB at a glance.

Uptime

16747

Days in orbit

Revolutions

≈ 14.2

Per day

Orbit

LEO

Low Earth Orbit

Inclination

81.2

Latest

Satellite identification and parameters

Extended collection of information and parameters for METEOR 2-5 DEB.

Object identification

Identified? True

Debris? True

Object name: METEOR 2-5 DEB

International designator: 1979-095CS

Object number (NORAD): 45510

Object ID (CCSDS): 45510

Country: COMMONWEALTH OF INDEPENDENT STATES (CIS)

Current information (Y/N): Y

RCS size: SMALL

Orbital parameters

Period: 101.297 minutes

Inclination: 81.1897 deg

SMA: 7198.224 km

Apoapsis: 833.591 km

Periapsis: 806.586 km

RAAN: 138.0743 deg

Eccentricy: 0.00187582

Argument of periapsis: 349.4911 deg

Mean anomaly: 10.5871 deg

Mean motion: 14.21558503 rev/day

Mean motion (dot): 0.00003437 rev/day2

B* drag term: 0.0015609284 1/REarth

Two-line elements (TLE)

Creation date: Aug. 25, 2025, 9:12 p.m.

Reference frame: TEME

Reference center: EARTH

Epoch: Aug. 25, 2025, 10:26 a.m. UTC

TLE line 0: 0 METEOR 2-5 DEB

TLE line 1: 1 45510U 79095CS 25237.43540039 .00003437 00000-0 15609-2 0 9992

TLE line 2: 2 45510 81.1897 138.0743 0018758 349.4911 10.5871 14.21558503400434

Live tracking on map

Real-time ground track for satellite METEOR 2-5 DEB.

In-orbit conjunctions

A list of the most updated potential collisions computed for object METEOR 2-5 DEB.

Target Orbit TCA Probability of collision Miss distance Type
INTERCOSMOS 22 LEO 2025-02-07 18:12:43 0.0005358279 148.0 (m) PAYLOAD
FENGYUN 1C DEB SSO 2024-11-11 20:06:33 0.0001891454 828.0 (m) DEBRIS
NOAA 16 DEB SSO 2024-09-16 10:42:37 0.0001118527 44.0 (m) DEBRIS

Associated space launch

Second generation soviet meteorological satellite

METEOR 2-5 DEB was lifted into orbit during the mission ‘Vostok 8A92M | Meteor-2 5’, on board a Vostok 8A92M space rocket.

The launch took place on Oct. 31, 1979, 9:25 a.m. from 43/4 (43R).

For more information about the launch, click the button.

Launch to space Vostok 8A92M | Meteor-2 5
Vostok 8A92M | Meteor-2 5

Agency: N/A

Status: Launch Successful

Launch date: Oct. 31, 1979, 9:25 a.m. UTC

Rocket: Vostok 8A92M

Launch pad: 43/4 (43R)

Location: Plesetsk Cosmodrome, Russian Federation

...

Latest news about this satellite

There are no fresh news available about this satellite. Check back as we update our databases every day.


Newsletter sign-up

Weekly statistics, charts and insights to help you stay on top of the space industry.